Data supplied by UK-AIR on 23/3/2017
All Data GMT hour ending 
Status: R =Ratified P=Provisional,P*=As supplied
,,Shaw Crompton Way,,,,,,,,,,,,,,,,,,,,,,,
Date,time,"Nitric oxide",status,unit,"Nitrogen dioxide",status,unit,"Nitrogen oxides as nitrogen dioxide",status,unit
 
01-01-2016,01:00,9.75264,R,ugm-3,33.33806,R,ugm-3,48.29190,R,ugm-3
01-01-2016,02:00,15.32558,R,ugm-3,44.67791,R,ugm-3,68.17680,R,ugm-3
01-01-2016,03:00,45.28011,R,ugm-3,55.73981,R,ugm-3,125.16834,R,ugm-3
01-01-2016,04:00,31.69608,R,ugm-3,41.94734,R,ugm-3,90.54731,R,ugm-3
01-01-2016,05:00,18.11204,R,ugm-3,30.81803,R,ugm-3,58.58944,R,ugm-3
01-01-2016,06:00,3.13478,R,ugm-3,9.57445,R,ugm-3,14.38104,R,ugm-3
01-01-2016,07:00,5.92125,R,ugm-3,14.88929,R,ugm-3,23.96841,R,ugm-3
01-01-2016,08:00,8.35941,R,ugm-3,20.20556,R,ugm-3,33.02314,R,ugm-3
01-01-2016,09:00,4.87632,R,ugm-3,14.89359,R,ugm-3,22.37051,R,ugm-3
01-01-2016,10:00,3.83139,R,ugm-3,7.97369,R,ugm-3,13.84841,R,ugm-3
01-01-2016,11:00,3.48309,R,ugm-3,7.44249,R,ugm-3,12.78315,R,ugm-3
01-01-2016,12:00,4.87632,R,ugm-3,8.50202,R,ugm-3,15.97894,R,ugm-3
01-01-2016,13:00,5.57294,R,ugm-3,10.62968,R,ugm-3,19.17473,R,ugm-3
01-01-2016,14:00,5.57294,R,ugm-3,11.16231,R,ugm-3,19.70736,R,ugm-3
01-01-2016,15:00,5.92125,R,ugm-3,11.16087,R,ugm-3,20.23999,R,ugm-3
01-01-2016,16:00,5.22463,R,ugm-3,12.22900,R,ugm-3,20.23999,R,ugm-3
01-01-2016,17:00,3.48309,R,ugm-3,7.44249,R,ugm-3,12.78315,R,ugm-3
01-01-2016,18:00,2.78647,R,ugm-3,6.91273,R,ugm-3,11.18526,R,ugm-3
01-01-2016,19:00,2.78647,R,ugm-3,10.10852,R,ugm-3,14.38104,R,ugm-3
01-01-2016,20:00,4.52801,R,ugm-3,9.03608,R,ugm-3,15.97894,R,ugm-3
01-01-2016,21:00,2.78647,R,ugm-3,6.91273,R,ugm-3,11.18526,R,ugm-3
01-01-2016,22:00,3.13478,R,ugm-3,6.37867,R,ugm-3,11.18526,R,ugm-3
01-01-2016,23:00,1.39323,R,ugm-3,4.78794,R,ugm-3,6.92421,R,ugm-3
01-01-2016,24:00,2.08985,R,ugm-3,4.25244,R,ugm-3,7.45684,R,ugm-3
02-01-2016,01:00,2.32414,R,ugm-3,7.09856,R,ugm-3,10.66219,R,ugm-3
02-01-2016,02:00,1.39448,R,ugm-3,3.54833,R,ugm-3,5.68650,R,ugm-3
02-01-2016,03:00,1.04586,R,ugm-3,2.66124,R,ugm-3,4.26488,R,ugm-3
02-01-2016,04:00,1.39448,R,ugm-3,2.12670,R,ugm-3,4.26488,R,ugm-3
02-01-2016,05:00,1.39448,R,ugm-3,2.12670,R,ugm-3,4.26488,R,ugm-3
02-01-2016,06:00,1.39448,R,ugm-3,2.12670,R,ugm-3,4.26488,R,ugm-3
02-01-2016,07:00,1.74310,R,ugm-3,2.12527,R,ugm-3,4.79798,R,ugm-3
02-01-2016,08:00,1.39448,R,ugm-3,3.72603,R,ugm-3,5.86420,R,ugm-3
02-01-2016,09:00,3.13758,R,ugm-3,3.71886,R,ugm-3,8.52975,R,ugm-3
02-01-2016,10:00,4.53207,R,ugm-3,10.11043,R,ugm-3,17.05950,R,ugm-3
02-01-2016,11:00,5.22931,R,ugm-3,8.50823,R,ugm-3,16.52639,R,ugm-3
02-01-2016,12:00,4.88069,R,ugm-3,9.57589,R,ugm-3,17.05950,R,ugm-3
02-01-2016,13:00,4.88069,R,ugm-3,10.10900,R,ugm-3,17.59261,R,ugm-3
02-01-2016,14:00,5.57793,R,ugm-3,13.30478,R,ugm-3,21.85748,R,ugm-3
02-01-2016,15:00,5.92655,R,ugm-3,15.96890,R,ugm-3,25.05614,R,ugm-3
02-01-2016,16:00,6.62379,R,ugm-3,12.76737,R,ugm-3,22.92370,R,ugm-3
02-01-2016,17:00,7.32103,R,ugm-3,17.56249,R,ugm-3,28.78791,R,ugm-3
02-01-2016,18:00,6.62379,R,ugm-3,20.23090,R,ugm-3,30.38723,R,ugm-3
02-01-2016,19:00,6.97241,R,ugm-3,20.22947,R,ugm-3,30.92034,R,ugm-3
02-01-2016,20:00,10.10999,R,ugm-3,19.15034,R,ugm-3,34.65211,R,ugm-3
02-01-2016,21:00,3.48620,R,ugm-3,12.24717,R,ugm-3,17.59261,R,ugm-3
02-01-2016,22:00,4.88069,R,ugm-3,13.84076,R,ugm-3,21.32438,R,ugm-3
02-01-2016,23:00,7.32103,R,ugm-3,15.43005,R,ugm-3,26.65547,R,ugm-3
02-01-2016,24:00,6.62379,R,ugm-3,15.43292,R,ugm-3,25.58925,R,ugm-3
03-01-2016,01:00,5.58292,R,ugm-3,16.34040,R,ugm-3,24.90075,R,ugm-3
03-01-2016,02:00,2.79146,R,ugm-3,11.37173,R,ugm-3,15.65190,R,ugm-3
03-01-2016,03:00,13.25942,R,ugm-3,25.02411,R,ugm-3,45.35494,R,ugm-3
03-01-2016,04:00,12.91049,R,ugm-3,22.35760,R,ugm-3,42.15341,R,ugm-3
03-01-2016,05:00,3.48932,R,ugm-3,10.12382,R,ugm-3,15.47404,R,ugm-3
03-01-2016,06:00,1.74466,R,ugm-3,7.99664,R,ugm-3,10.67175,R,ugm-3
03-01-2016,07:00,4.18719,R,ugm-3,7.45301,R,ugm-3,13.87328,R,ugm-3
03-01-2016,08:00,3.83825,R,ugm-3,10.12238,R,ugm-3,16.00763,R,ugm-3
03-01-2016,09:00,4.18719,R,ugm-3,12.25530,R,ugm-3,18.67556,R,ugm-3
03-01-2016,10:00,4.18719,R,ugm-3,9.58736,R,ugm-3,16.00763,R,ugm-3
03-01-2016,11:00,6.28078,R,ugm-3,10.11234,R,ugm-3,19.74274,R,ugm-3
03-01-2016,12:00,8.02544,R,ugm-3,12.77311,R,ugm-3,25.07861,R,ugm-3
03-01-2016,13:00,7.67651,R,ugm-3,14.90889,R,ugm-3,26.67938,R,ugm-3
03-01-2016,14:00,6.97864,R,ugm-3,16.51253,R,ugm-3,27.21296,R,ugm-3
03-01-2016,15:00,4.88505,R,ugm-3,13.31961,R,ugm-3,20.80991,R,ugm-3
03-01-2016,16:00,4.53612,R,ugm-3,14.92180,R,ugm-3,21.87709,R,ugm-3
03-01-2016,17:00,9.07224,R,ugm-3,25.57491,R,ugm-3,39.48548,R,ugm-3
03-01-2016,18:00,16.74874,R,ugm-3,47.95403,R,ugm-3,73.63508,R,ugm-3
03-01-2016,19:00,17.09768,R,ugm-3,48.48618,R,ugm-3,74.70225,R,ugm-3
03-01-2016,20:00,20.23807,R,ugm-3,40.46946,R,ugm-3,71.50073,R,ugm-3
03-01-2016,21:00,8.37437,R,ugm-3,26.64495,R,ugm-3,39.48548,R,ugm-3
03-01-2016,22:00,5.23398,R,ugm-3,20.78840,R,ugm-3,28.81373,R,ugm-3
03-01-2016,23:00,5.23398,R,ugm-3,11.71741,R,ugm-3,19.74274,R,ugm-3
03-01-2016,24:00,3.48932,R,ugm-3,10.65741,R,ugm-3,16.00763,R,ugm-3
04-01-2016,01:00,7.44389,R,ugm-3,12.06405,R,ugm-3,23.47785,R,ugm-3
04-01-2016,02:00,3.72194,R,ugm-3,9.23355,R,ugm-3,14.94045,R,ugm-3
04-01-2016,03:00,3.48932,R,ugm-3,9.59023,R,ugm-3,14.94045,R,ugm-3
04-01-2016,04:00,4.53612,R,ugm-3,10.65310,R,ugm-3,17.60839,R,ugm-3
04-01-2016,05:00,4.53612,R,ugm-3,13.32104,R,ugm-3,20.27633,R,ugm-3
04-01-2016,06:00,6.28078,R,ugm-3,13.84746,R,ugm-3,23.47785,R,ugm-3
04-01-2016,07:00,17.44661,R,ugm-3,29.80918,R,ugm-3,56.56028,R,ugm-3
04-01-2016,08:00,13.95729,R,ugm-3,25.02124,R,ugm-3,46.42211,R,ugm-3
04-01-2016,09:00,17.44661,R,ugm-3,30.87636,R,ugm-3,57.62745,R,ugm-3
04-01-2016,10:00,12.91049,R,ugm-3,22.89119,R,ugm-3,42.68700,R,ugm-3
04-01-2016,11:00,16.05088,R,ugm-3,28.21416,R,ugm-3,52.82516,R,ugm-3
04-01-2016,12:00,11.86369,R,ugm-3,27.69778,R,ugm-3,45.88853,R,ugm-3
04-01-2016,13:00,11.86369,R,ugm-3,35.70159,R,ugm-3,53.89234,R,ugm-3
04-01-2016,14:00,13.60836,R,ugm-3,34.09366,R,ugm-3,54.95951,R,ugm-3
04-01-2016,15:00,16.39981,R,ugm-3,41.55241,R,ugm-3,66.69844,R,ugm-3
04-01-2016,16:00,16.39981,R,ugm-3,38.35088,R,ugm-3,63.49691,R,ugm-3
04-01-2016,17:00,12.91049,R,ugm-3,37.29805,R,ugm-3,57.09386,R,ugm-3
04-01-2016,18:00,13.95729,R,ugm-3,36.22658,R,ugm-3,57.62745,R,ugm-3
04-01-2016,19:00,9.42117,R,ugm-3,31.44293,R,ugm-3,45.88853,R,ugm-3
04-01-2016,20:00,6.28078,R,ugm-3,27.18714,R,ugm-3,36.81754,R,ugm-3
04-01-2016,21:00,4.18719,R,ugm-3,18.65835,R,ugm-3,25.07861,R,ugm-3
04-01-2016,22:00,2.79146,R,ugm-3,18.13050,R,ugm-3,22.41068,R,ugm-3
04-01-2016,23:00,3.48932,R,ugm-3,24.53068,R,ugm-3,29.88090,R,ugm-3
04-01-2016,24:00,1.74466,R,ugm-3,17.06763,R,ugm-3,19.74274,R,ugm-3
05-01-2016,01:00,1.86264,R,ugm-3,12.09784,R,ugm-3,14.95384,R,ugm-3
05-01-2016,02:00,1.39698,R,ugm-3,9.96349,R,ugm-3,12.10549,R,ugm-3
05-01-2016,03:00,1.39698,R,ugm-3,12.81184,R,ugm-3,14.95384,R,ugm-3
05-01-2016,04:00,1.39698,R,ugm-3,10.67558,R,ugm-3,12.81758,R,ugm-3
05-01-2016,05:00,3.49244,R,ugm-3,13.33730,R,ugm-3,18.69230,R,ugm-3
05-01-2016,06:00,14.66825,R,ugm-3,21.30238,R,ugm-3,43.79338,R,ugm-3
05-01-2016,07:00,16.76371,R,ugm-3,33.57728,R,ugm-3,59.28128,R,ugm-3
05-01-2016,08:00,19.90691,R,ugm-3,31.42811,R,ugm-3,61.95161,R,ugm-3
05-01-2016,09:00,48.19567,R,ugm-3,51.07236,R,ugm-3,124.97136,R,ugm-3
05-01-2016,10:00,29.68574,R,ugm-3,37.79674,R,ugm-3,83.31424,R,ugm-3
05-01-2016,11:00,13.62052,R,ugm-3,24.51108,R,ugm-3,45.39558,R,ugm-3
05-01-2016,12:00,14.66825,R,ugm-3,26.64304,R,ugm-3,49.13404,R,ugm-3
05-01-2016,13:00,13.27127,R,ugm-3,30.92130,R,ugm-3,51.27030,R,ugm-3
05-01-2016,14:00,15.36674,R,ugm-3,32.51489,R,ugm-3,56.07689,R,ugm-3
05-01-2016,15:00,23.74859,R,ugm-3,39.42332,R,ugm-3,75.83732,R,ugm-3
05-01-2016,16:00,17.11296,R,ugm-3,35.71211,R,ugm-3,61.95161,R,ugm-3
05-01-2016,17:00,11.87430,R,ugm-3,30.92704,R,ugm-3,49.13404,R,ugm-3
05-01-2016,18:00,23.74859,R,ugm-3,37.82112,R,ugm-3,74.23512,R,ugm-3
05-01-2016,19:00,72.64275,R,ugm-3,66.99392,R,ugm-3,178.37792,R,ugm-3
05-01-2016,20:00,59.37148,R,ugm-3,60.63964,R,ugm-3,151.67464,R,ugm-3
05-01-2016,21:00,31.08272,R,ugm-3,40.46133,R,ugm-3,88.12083,R,ugm-3
05-01-2016,22:00,31.08272,R,ugm-3,35.12067,R,ugm-3,82.78017,R,ugm-3
05-01-2016,23:00,4.54017,R,ugm-3,14.93519,R,ugm-3,21.89669,R,ugm-3
05-01-2016,24:00,22.00237,R,ugm-3,29.81731,R,ugm-3,63.55381,R,ugm-3
06-01-2016,01:00,20.95464,R,ugm-3,34.09414,R,ugm-3,66.22414,R,ugm-3
06-01-2016,02:00,7.45054,R,ugm-3,24.89246,R,ugm-3,36.31646,R,ugm-3
06-01-2016,03:00,3.49244,R,ugm-3,22.95048,R,ugm-3,28.30548,R,ugm-3
06-01-2016,04:00,14.31900,R,ugm-3,22.90601,R,ugm-3,44.86151,R,ugm-3
06-01-2016,05:00,24.44708,R,ugm-3,30.87540,R,ugm-3,68.36040,R,ugm-3
06-01-2016,06:00,60.41921,R,ugm-3,46.21556,R,ugm-3,138.85706,R,ugm-3
06-01-2016,07:00,93.59739,R,ugm-3,65.83973,R,ugm-3,209.35373,R,ugm-3
06-01-2016,08:00,154.36585,R,ugm-3,88.02090,R,ugm-3,324.71190,R,ugm-3
06-01-2016,09:00,117.34598,R,ugm-3,68.94658,R,ugm-3,248.87458,R,ugm-3
06-01-2016,10:00,91.50193,R,ugm-3,62.64394,R,ugm-3,202.94494,R,ugm-3
06-01-2016,11:00,111.75808,R,ugm-3,74.31019,R,ugm-3,245.67019,R,ugm-3
06-01-2016,12:00,90.45420,R,ugm-3,64.78450,R,ugm-3,203.47900,R,ugm-3
06-01-2016,13:00,18.85918,R,ugm-3,32.50055,R,ugm-3,61.41755,R,ugm-3
06-01-2016,14:00,11.52505,R,ugm-3,21.31529,R,ugm-3,38.98679,R,ugm-3
06-01-2016,15:00,,,,,,,,,
06-01-2016,16:00,27.93952,R,ugm-3,49.03172,R,ugm-3,91.87172,R,ugm-3
06-01-2016,17:00,28.28876,R,ugm-3,51.12113,R,ugm-3,94.49663,R,ugm-3
06-01-2016,18:00,32.13045,R,ugm-3,50.48044,R,ugm-3,99.74644,R,ugm-3
06-01-2016,19:00,20.25615,R,ugm-3,36.13860,R,ugm-3,67.19760,R,ugm-3
06-01-2016,20:00,16.41447,R,ugm-3,34.67936,R,ugm-3,59.84786,R,ugm-3
06-01-2016,21:00,13.27127,R,ugm-3,34.77403,R,ugm-3,55.12303,R,ugm-3
06-01-2016,22:00,7.33412,R,ugm-3,30.75300,R,ugm-3,41.99850,R,ugm-3
06-01-2016,23:00,6.28639,R,ugm-3,23.43482,R,ugm-3,33.07382,R,ugm-3
06-01-2016,24:00,4.54017,R,ugm-3,16.13768,R,ugm-3,23.09918,R,ugm-3
07-01-2016,01:00,6.53086,R,ugm-3,21.37410,R,ugm-3,31.38795,R,ugm-3
07-01-2016,02:00,2.79894,R,ugm-3,25.66958,R,ugm-3,29.96123,R,ugm-3
07-01-2016,03:00,2.09921,R,ugm-3,34.23279,R,ugm-3,37.45153,R,ugm-3
07-01-2016,04:00,2.09921,R,ugm-3,31.55768,R,ugm-3,34.77642,R,ugm-3
07-01-2016,05:00,3.84854,R,ugm-3,16.56990,R,ugm-3,22.47092,R,ugm-3
07-01-2016,06:00,5.59788,R,ugm-3,15.49268,R,ugm-3,24.07598,R,ugm-3
07-01-2016,07:00,9.79629,R,ugm-3,18.15058,R,ugm-3,33.17136,R,ugm-3
07-01-2016,08:00,12.24537,R,ugm-3,21.35067,R,ugm-3,40.12664,R,ugm-3
07-01-2016,09:00,43.03372,R,ugm-3,44.76541,R,ugm-3,110.74953,R,ugm-3
07-01-2016,10:00,140.99666,R,ugm-3,94.12082,R,ugm-3,310.31269,R,ugm-3
07-01-2016,11:00,89.91599,R,ugm-3,82.55976,R,ugm-3,220.42901,R,ugm-3
07-01-2016,12:00,25.54034,R,ugm-3,27.71643,R,ugm-3,66.87773,R,ugm-3
07-01-2016,13:00,17.49338,R,ugm-3,24.00427,R,ugm-3,50.82708,R,ugm-3
07-01-2016,14:00,14.69444,R,ugm-3,26.15583,R,ugm-3,48.68699,R,ugm-3
07-01-2016,15:00,20.99206,R,ugm-3,23.45490,R,ugm-3,55.64228,R,ugm-3
07-01-2016,16:00,41.98412,R,ugm-3,48.51487,R,ugm-3,112.88962,R,ugm-3
07-01-2016,17:00,22.04166,R,ugm-3,30.94090,R,ugm-3,64.73765,R,ugm-3
07-01-2016,18:00,19.94246,R,ugm-3,30.94951,R,ugm-3,61.52752,R,ugm-3
07-01-2016,19:00,17.84325,R,ugm-3,27.74798,R,ugm-3,55.10725,R,ugm-3
07-01-2016,20:00,12.94510,R,ugm-3,28.30309,R,ugm-3,48.15197,R,ugm-3
07-01-2016,21:00,13.29497,R,ugm-3,25.62654,R,ugm-3,46.01188,R,ugm-3
07-01-2016,22:00,7.69709,R,ugm-3,15.48408,R,ugm-3,27.28612,R,ugm-3
07-01-2016,23:00,11.89550,R,ugm-3,21.88713,R,ugm-3,40.12664,R,ugm-3
07-01-2016,24:00,11.89550,R,ugm-3,26.16730,R,ugm-3,44.40682,R,ugm-3
08-01-2016,01:00,23.83341,R,ugm-3,38.49289,R,ugm-3,75.03694,R,ugm-3
08-01-2016,02:00,19.62751,R,ugm-3,42.08329,R,ugm-3,72.17839,R,ugm-3
08-01-2016,03:00,5.95835,R,ugm-3,16.59094,R,ugm-3,25.72695,R,ugm-3
08-01-2016,04:00,6.30884,R,ugm-3,10.69374,R,ugm-3,20.36717,R,ugm-3
08-01-2016,05:00,9.11277,R,ugm-3,16.57803,R,ugm-3,30.55075,R,ugm-3
08-01-2016,06:00,24.18390,R,ugm-3,37.41950,R,ugm-3,74.50096,R,ugm-3
08-01-2016,07:00,18.57604,R,ugm-3,33.69060,R,ugm-3,62.17346,R,ugm-3
08-01-2016,08:00,28.03930,R,ugm-3,39.01165,R,ugm-3,82.00465,R,ugm-3
08-01-2016,09:00,17.87506,R,ugm-3,42.26912,R,ugm-3,69.67716,R,ugm-3
08-01-2016,10:00,20.67899,R,ugm-3,42.79362,R,ugm-3,74.50096,R,ugm-3
08-01-2016,11:00,24.53439,R,ugm-3,45.45773,R,ugm-3,83.07661,R,ugm-3
08-01-2016,12:00,22.08095,R,ugm-3,44.93180,R,ugm-3,78.78878,R,ugm-3
08-01-2016,13:00,33.99766,R,ugm-3,54.53063,R,ugm-3,106.65965,R,ugm-3
08-01-2016,14:00,23.83341,R,ugm-3,42.24473,R,ugm-3,78.78878,R,ugm-3
08-01-2016,15:00,36.10060,R,ugm-3,52.91409,R,ugm-3,108.26758,R,ugm-3
08-01-2016,16:00,53.62517,R,ugm-3,82.32117,R,ugm-3,164.54528,R,ugm-3
08-01-2016,17:00,54.32615,R,ugm-3,86.07015,R,ugm-3,169.36909,R,ugm-3
08-01-2016,18:00,48.01731,R,ugm-3,85.55999,R,ugm-3,159.18550,R,ugm-3
08-01-2016,19:00,41.70847,R,ugm-3,78.08212,R,ugm-3,142.03420,R,ugm-3
08-01-2016,20:00,36.45110,R,ugm-3,81.31950,R,ugm-3,137.21040,R,ugm-3
08-01-2016,21:00,30.14225,R,ugm-3,69.01782,R,ugm-3,115.23530,R,ugm-3
08-01-2016,22:00,22.78194,R,ugm-3,61.54425,R,ugm-3,96.47606,R,ugm-3
08-01-2016,23:00,9.81376,R,ugm-3,33.72646,R,ugm-3,48.77401,R,ugm-3
08-01-2016,24:00,9.46327,R,ugm-3,23.00833,R,ugm-3,37.51847,R,ugm-3
09-01-2016,01:00,40.72933,R,ugm-3,49.94749,R,ugm-3,112.39826,R,ugm-3
09-01-2016,02:00,14.51275,R,ugm-3,33.58860,R,ugm-3,55.84118,R,ugm-3
09-01-2016,03:00,3.51115,R,ugm-3,15.55675,R,ugm-3,20.94044,R,ugm-3
09-01-2016,04:00,4.21338,R,ugm-3,16.09082,R,ugm-3,22.55124,R,ugm-3
09-01-2016,05:00,2.45781,R,ugm-3,13.41332,R,ugm-3,17.18190,R,ugm-3
09-01-2016,06:00,10.53345,R,ugm-3,19.82354,R,ugm-3,35.97460,R,ugm-3
09-01-2016,07:00,5.96895,R,ugm-3,18.23138,R,ugm-3,27.38365,R,ugm-3
09-01-2016,08:00,10.53345,R,ugm-3,20.36048,R,ugm-3,36.51154,R,ugm-3
09-01-2016,09:00,12.28902,R,ugm-3,27.33345,R,ugm-3,46.17636,R,ugm-3
09-01-2016,10:00,9.83122,R,ugm-3,21.43721,R,ugm-3,36.51154,R,ugm-3
09-01-2016,11:00,12.64014,R,ugm-3,24.64734,R,ugm-3,44.02862,R,ugm-3
09-01-2016,12:00,16.15129,R,ugm-3,30.00234,R,ugm-3,54.76731,R,ugm-3
09-01-2016,13:00,18.96021,R,ugm-3,33.21248,R,ugm-3,62.28439,R,ugm-3
09-01-2016,14:00,16.50240,R,ugm-3,40.20266,R,ugm-3,65.50599,R,ugm-3
09-01-2016,15:00,16.85352,R,ugm-3,38.59043,R,ugm-3,64.43213,R,ugm-3
09-01-2016,16:00,12.64014,R,ugm-3,28.40588,R,ugm-3,47.78716,R,ugm-3
09-01-2016,17:00,8.07564,R,ugm-3,20.90745,R,ugm-3,33.28993,R,ugm-3
09-01-2016,18:00,6.67118,R,ugm-3,18.22852,R,ugm-3,28.45752,R,ugm-3
09-01-2016,19:00,5.96895,R,ugm-3,15.54671,R,ugm-3,24.69898,R,ugm-3
09-01-2016,20:00,7.72453,R,ugm-3,20.37195,R,ugm-3,32.21606,R,ugm-3
09-01-2016,21:00,5.61784,R,ugm-3,13.40041,R,ugm-3,22.01431,R,ugm-3
09-01-2016,22:00,4.91561,R,ugm-3,10.18167,R,ugm-3,17.71883,R,ugm-3
09-01-2016,23:00,3.86226,R,ugm-3,8.57517,R,ugm-3,14.49723,R,ugm-3
09-01-2016,24:00,3.16004,R,ugm-3,9.11498,R,ugm-3,13.96029,R,ugm-3
10-01-2016,01:00,2.34492,R,ugm-3,5.72794,R,ugm-3,9.32344,R,ugm-3
10-01-2016,02:00,1.40695,R,ugm-3,3.58020,R,ugm-3,5.73750,R,ugm-3
10-01-2016,03:00,1.40695,R,ugm-3,4.83528,R,ugm-3,6.99258,R,ugm-3
10-01-2016,04:00,1.40695,R,ugm-3,1.60793,R,ugm-3,3.76523,R,ugm-3
10-01-2016,05:00,1.40695,R,ugm-3,3.22161,R,ugm-3,5.37891,R,ugm-3
10-01-2016,06:00,1.75869,R,ugm-3,2.68228,R,ugm-3,5.37891,R,ugm-3
10-01-2016,07:00,2.11043,R,ugm-3,8.59764,R,ugm-3,11.83359,R,ugm-3
10-01-2016,08:00,2.46217,R,ugm-3,11.82355,R,ugm-3,15.59883,R,ugm-3
10-01-2016,09:00,4.57260,R,ugm-3,13.96651,R,ugm-3,20.97773,R,ugm-3
10-01-2016,10:00,5.62782,R,ugm-3,20.41689,R,ugm-3,29.04609,R,ugm-3
10-01-2016,11:00,9.84868,R,ugm-3,27.39226,R,ugm-3,42.49336,R,ugm-3
10-01-2016,12:00,16.53171,R,ugm-3,24.67555,R,ugm-3,50.02383,R,ugm-3
10-01-2016,13:00,14.77302,R,ugm-3,28.44796,R,ugm-3,51.09961,R,ugm-3
10-01-2016,14:00,16.88345,R,ugm-3,24.67412,R,ugm-3,50.56172,R,ugm-3
10-01-2016,15:00,16.17998,R,ugm-3,33.82113,R,ugm-3,58.63008,R,ugm-3
10-01-2016,16:00,15.12476,R,ugm-3,31.67387,R,ugm-3,54.86484,R,ugm-3
10-01-2016,17:00,13.36607,R,ugm-3,30.60526,R,ugm-3,51.09961,R,ugm-3
10-01-2016,18:00,10.90390,R,ugm-3,27.92585,R,ugm-3,44.64492,R,ugm-3
10-01-2016,19:00,13.01433,R,ugm-3,30.06880,R,ugm-3,50.02383,R,ugm-3
10-01-2016,20:00,7.73825,R,ugm-3,23.63563,R,ugm-3,35.50078,R,ugm-3
10-01-2016,21:00,7.38651,R,ugm-3,26.86441,R,ugm-3,38.19023,R,ugm-3
10-01-2016,22:00,8.08999,R,ugm-3,26.86154,R,ugm-3,39.26602,R,ugm-3
10-01-2016,23:00,4.92434,R,ugm-3,17.19242,R,ugm-3,24.74297,R,ugm-3
10-01-2016,24:00,5.62782,R,ugm-3,13.96221,R,ugm-3,22.59141,R,ugm-3
11-01-2016,01:00,33.32744,R,ugm-3,39.42491,R,ugm-3,90.52628,R,ugm-3
11-01-2016,02:00,7.51041,R,ugm-3,22.25194,R,ugm-3,33.76774,R,ugm-3
11-01-2016,03:00,19.01072,R,ugm-3,26.89071,R,ugm-3,56.04008,R,ugm-3
11-01-2016,04:00,47.17476,R,ugm-3,41.90192,R,ugm-3,114.23554,R,ugm-3
11-01-2016,05:00,25.69968,R,ugm-3,33.33870,R,ugm-3,72.74433,R,ugm-3
11-01-2016,06:00,66.53753,R,ugm-3,53.16511,R,ugm-3,155.18790,R,ugm-3
11-01-2016,07:00,92.23721,R,ugm-3,69.79956,R,ugm-3,211.22798,R,ugm-3
11-01-2016,08:00,258.40501,R,ugm-3,118.92212,R,ugm-3,515.13761,R,ugm-3
11-01-2016,09:00,251.36400,R,ugm-3,114.63047,R,ugm-3,500.04990,R,ugm-3
11-01-2016,10:00,239.74634,R,ugm-3,101.72970,R,ugm-3,469.33563,R,ugm-3
11-01-2016,11:00,184.82647,R,ugm-3,95.95156,R,ugm-3,379.34820,R,ugm-3
11-01-2016,12:00,98.57412,R,ugm-3,79.48159,R,ugm-3,230.62646,R,ugm-3
11-01-2016,13:00,95.40567,R,ugm-3,90.80598,R,ugm-3,237.09263,R,ugm-3
11-01-2016,14:00,95.40567,R,ugm-3,84.87866,R,ugm-3,231.16531,R,ugm-3
11-01-2016,15:00,118.64099,R,ugm-3,96.67018,R,ugm-3,278.58383,R,ugm-3
11-01-2016,16:00,142.93247,R,ugm-3,104.68690,R,ugm-3,323.84697,R,ugm-3
11-01-2016,17:00,161.94320,R,ugm-3,112.17912,R,ugm-3,360.48856,R,ugm-3
11-01-2016,18:00,148.56528,R,ugm-3,108.98238,R,ugm-3,336.77930,R,ugm-3
11-01-2016,19:00,155.95834,R,ugm-3,103.03498,R,ugm-3,342.16777,R,ugm-3
11-01-2016,20:00,107.72743,R,ugm-3,95.62213,R,ugm-3,260.80189,R,ugm-3
11-01-2016,21:00,70.41009,R,ugm-3,83.86886,R,ugm-3,191.82949,R,ugm-3
11-01-2016,22:00,50.69526,R,ugm-3,75.30086,R,ugm-3,153.03251,R,ugm-3
11-01-2016,23:00,36.96530,R,ugm-3,68.33315,R,ugm-3,125.01248,R,ugm-3
11-01-2016,24:00,21.12303,R,ugm-3,59.21578,R,ugm-3,91.60397,R,ugm-3
12-01-2016,01:00,16.92836,R,ugm-3,25.86465,R,ugm-3,51.82110,R,ugm-3
12-01-2016,02:00,6.11302,R,ugm-3,10.77949,R,ugm-3,20.15265,R,ugm-3
12-01-2016,03:00,2.82139,R,ugm-3,4.31078,R,ugm-3,8.63685,R,ugm-3
12-01-2016,04:00,0.70535,R,ugm-3,2.69710,R,ugm-3,3.77862,R,ugm-3
12-01-2016,05:00,3.87942,R,ugm-3,4.30791,R,ugm-3,10.25626,R,ugm-3
12-01-2016,06:00,9.52220,R,ugm-3,15.08867,R,ugm-3,29.68917,R,ugm-3
12-01-2016,07:00,31.74067,R,ugm-3,38.77976,R,ugm-3,87.44811,R,ugm-3
12-01-2016,08:00,44.78961,R,ugm-3,59.25690,R,ugm-3,127.93334,R,ugm-3
12-01-2016,09:00,45.14228,R,ugm-3,37.12402,R,ugm-3,106.34122,R,ugm-3
12-01-2016,10:00,31.38799,R,ugm-3,38.24092,R,ugm-3,86.36850,R,ugm-3
12-01-2016,11:00,40.55752,R,ugm-3,49.55192,R,ugm-3,111.73925,R,ugm-3
12-01-2016,12:00,43.37891,R,ugm-3,42.52683,R,ugm-3,109.04023,R,ugm-3
12-01-2016,13:00,25.39253,R,ugm-3,26.38150,R,ugm-3,65.31618,R,ugm-3
12-01-2016,14:00,23.27649,R,ugm-3,31.78527,R,ugm-3,67.47539,R,ugm-3
12-01-2016,15:00,34.56206,R,ugm-3,34.45369,R,ugm-3,87.44811,R,ugm-3
12-01-2016,16:00,37.38345,R,ugm-3,48.48092,R,ugm-3,105.80141,R,ugm-3
12-01-2016,17:00,39.85217,R,ugm-3,38.75777,R,ugm-3,99.86358,R,ugm-3
12-01-2016,18:00,29.62462,R,ugm-3,37.16609,R,ugm-3,82.58988,R,ugm-3
12-01-2016,19:00,44.78961,R,ugm-3,42.52300,R,ugm-3,111.19944,R,ugm-3
12-01-2016,20:00,35.62008,R,ugm-3,41.46826,R,ugm-3,96.08496,R,ugm-3
12-01-2016,21:00,25.03986,R,ugm-3,39.33773,R,ugm-3,77.73165,R,ugm-3
12-01-2016,22:00,11.99092,R,ugm-3,25.87804,R,ugm-3,44.26386,R,ugm-3
12-01-2016,23:00,15.51766,R,ugm-3,25.86848,R,ugm-3,49.66189,R,ugm-3
12-01-2016,24:00,8.46418,R,ugm-3,13.47213,R,ugm-3,26.45035,R,ugm-3
13-01-2016,01:00,14.13191,R,ugm-3,13.66099,R,ugm-3,35.32961,R,ugm-3
13-01-2016,02:00,3.29745,R,ugm-3,3.59614,R,ugm-3,8.65215,R,ugm-3
13-01-2016,03:00,5.29947,R,ugm-3,7.55629,R,ugm-3,15.68202,R,ugm-3
13-01-2016,04:00,6.71266,R,ugm-3,10.79702,R,ugm-3,21.08962,R,ugm-3
13-01-2016,05:00,5.65276,R,ugm-3,11.88141,R,ugm-3,20.54886,R,ugm-3
13-01-2016,06:00,22.61105,R,ugm-3,34.00664,R,ugm-3,68.67644,R,ugm-3
13-01-2016,07:00,68.89306,R,ugm-3,75.51984,R,ugm-3,181.15439,R,ugm-3
13-01-2016,08:00,184.42141,R,ugm-3,111.97879,R,ugm-3,394.75434,R,ugm-3
13-01-2016,09:00,158.98398,R,ugm-3,107.18080,R,ugm-3,350.95283,R,ugm-3
13-01-2016,10:00,128.60037,R,ugm-3,102.93697,R,ugm-3,300.12145,R,ugm-3
13-01-2016,11:00,68.89306,R,ugm-3,85.25351,R,ugm-3,190.88806,R,ugm-3
13-01-2016,12:00,68.89306,R,ugm-3,72.81605,R,ugm-3,178.45059,R,ugm-3
13-01-2016,13:00,57.58753,R,ugm-3,74.46893,R,ugm-3,162.76857,R,ugm-3
13-01-2016,14:00,36.38967,R,ugm-3,50.19213,R,ugm-3,105.98884,R,ugm-3
13-01-2016,15:00,60.76721,R,ugm-3,71.75652,R,ugm-3,164.93161,R,ugm-3
13-01-2016,16:00,62.53370,R,ugm-3,60.93655,R,ugm-3,156.82022,R,ugm-3
13-01-2016,17:00,41.68913,R,ugm-3,74.51196,R,ugm-3,138.43440,R,ugm-3
13-01-2016,18:00,27.91052,R,ugm-3,43.72597,R,ugm-3,86.52150,R,ugm-3
13-01-2016,19:00,19.78467,R,ugm-3,34.01429,R,ugm-3,64.35037,R,ugm-3
13-01-2016,20:00,16.60499,R,ugm-3,35.10442,R,ugm-3,60.56505,R,ugm-3
13-01-2016,21:00,11.30553,R,ugm-3,33.49648,R,ugm-3,50.83138,R,ugm-3
13-01-2016,22:00,8.12585,R,ugm-3,25.93446,R,ugm-3,38.39392,R,ugm-3
13-01-2016,23:00,8.12585,R,ugm-3,23.77142,R,ugm-3,36.23088,R,ugm-3
13-01-2016,24:00,9.18574,R,ugm-3,21.06475,R,ugm-3,35.14936,R,ugm-3
14-01-2016,01:00,6.60653,R,ugm-3,20.20620,R,ugm-3,30.33608,R,ugm-3
14-01-2016,02:00,4.71895,R,ugm-3,18.76673,R,ugm-3,26.00235,R,ugm-3
14-01-2016,03:00,1.76961,R,ugm-3,12.99639,R,ugm-3,15.70975,R,ugm-3
14-01-2016,04:00,4.60098,R,ugm-3,18.94762,R,ugm-3,26.00235,R,ugm-3
14-01-2016,05:00,14.51078,R,ugm-3,20.54599,R,ugm-3,42.79553,R,ugm-3
14-01-2016,06:00,29.02155,R,ugm-3,38.38340,R,ugm-3,82.88249,R,ugm-3
14-01-2016,07:00,33.26861,R,ugm-3,41.08050,R,ugm-3,92.09166,R,ugm-3
14-01-2016,08:00,35.03822,R,ugm-3,47.03459,R,ugm-3,100.75911,R,ugm-3
14-01-2016,09:00,39.28527,R,ugm-3,42.68939,R,ugm-3,102.92597,R,ugm-3
14-01-2016,10:00,21.23528,R,ugm-3,31.36213,R,ugm-3,63.92244,R,ugm-3
14-01-2016,11:00,24.42058,R,ugm-3,29.72838,R,ugm-3,67.17274,R,ugm-3
14-01-2016,12:00,18.75783,R,ugm-3,27.03510,R,ugm-3,55.79671,R,ugm-3
14-01-2016,13:00,15.57254,R,ugm-3,17.83454,R,ugm-3,41.71210,R,ugm-3
14-01-2016,14:00,18.40391,R,ugm-3,22.16062,R,ugm-3,50.37955,R,ugm-3
14-01-2016,15:00,26.89803,R,ugm-3,31.34683,R,ugm-3,72.58989,R,ugm-3
14-01-2016,16:00,50.96468,R,ugm-3,55.11729,R,ugm-3,133.26204,R,ugm-3
14-01-2016,17:00,21.58920,R,ugm-3,38.40348,R,ugm-3,71.50646,R,ugm-3
14-01-2016,18:00,24.06665,R,ugm-3,39.48022,R,ugm-3,76.38190,R,ugm-3
14-01-2016,19:00,21.58920,R,ugm-3,38.40348,R,ugm-3,71.50646,R,ugm-3
14-01-2016,20:00,30.43724,R,ugm-3,47.58874,R,ugm-3,94.25852,R,ugm-3
14-01-2016,21:00,79.98623,R,ugm-3,72.91550,R,ugm-3,195.55934,R,ugm-3
14-01-2016,22:00,125.99601,R,ugm-3,90.66780,R,ugm-3,283.85899,R,ugm-3
14-01-2016,23:00,20.17352,R,ugm-3,39.49073,R,ugm-3,70.42303,R,ugm-3
14-01-2016,24:00,8.84803,R,ugm-3,14.06070,R,ugm-3,27.62750,R,ugm-3
15-01-2016,01:00,31.19996,R,ugm-3,22.34629,R,ugm-3,70.18556,R,ugm-3
15-01-2016,02:00,6.14545,R,ugm-3,14.45468,R,ugm-3,23.87756,R,ugm-3
15-01-2016,03:00,3.54545,R,ugm-3,12.47189,R,ugm-3,17.90817,R,ugm-3
15-01-2016,04:00,4.60909,R,ugm-3,7.04230,R,ugm-3,14.10947,R,ugm-3
15-01-2016,05:00,14.89089,R,ugm-3,16.78267,R,ugm-3,39.61505,R,ugm-3
15-01-2016,06:00,25.88179,R,ugm-3,33.03318,R,ugm-3,72.71803,R,ugm-3
15-01-2016,07:00,98.56352,R,ugm-3,63.22677,R,ugm-3,214.35539,R,ugm-3
15-01-2016,08:00,87.92717,R,ugm-3,73.56623,R,ugm-3,208.38600,R,ugm-3
15-01-2016,09:00,139.33620,R,ugm-3,87.53704,R,ugm-3,301.18289,R,ugm-3
15-01-2016,10:00,67.36356,R,ugm-3,66.02428,R,ugm-3,169.31363,R,ugm-3
15-01-2016,11:00,82.96354,R,ugm-3,67.61022,R,ugm-3,194.81920,R,ugm-3
15-01-2016,12:00,48.57267,R,ugm-3,42.74007,R,ugm-3,117.21713,R,ugm-3
15-01-2016,13:00,28.00906,R,ugm-3,33.57011,R,ugm-3,76.51673,R,ugm-3
15-01-2016,14:00,37.93632,R,ugm-3,46.02479,R,ugm-3,104.19300,R,ugm-3
15-01-2016,15:00,53.18175,R,ugm-3,55.75177,R,ugm-3,137.29598,R,ugm-3